{"data":{"norad_id":62228,"epoch":"2026-09-21T07:56:17.113632Z","epoch_age_seconds":105858,"freshness":"FRESH","line1":"1 62228U 24231L   26264.33075363  .00140802  00000+0  11459-2 0  9998","line2":"2 62228  53.1569 216.4918 0001205 122.9251 237.1883 15.69742193104152","mean_motion":15.69742193,"eccentricity":0.0001205,"inclination_deg":53.1569,"raan_deg":216.4918,"arg_perigee_deg":122.9251,"mean_anomaly_deg":237.1883,"bstar":0.0011459,"rev_number":10415,"period_min":91.734808838129,"perigee_km":358.82272646988,"apogee_km":360.44652943221,"semimajor_km":6737.771627951,"source":"CELESTRAK","updated_at":"2026-09-22T09:00:49.563450Z"}}